EW7837 Weather Reports


time (UTC)temp
F
wind
direction
speed
knots
gust
knots
rain 1hr
in
rain 24hr
in
rain mn
in
humidity
%
barometer
mb
20260901124532 65 259 0.0 0.0 0.00 0.00 0.00 90 1010.6
20260901123036 66 259 0.0 0.0 0.00 0.00 0.00 90 1011.0
20260901121518 65 259 0.0 0.0 0.00 0.00 0.00 91 1011.0
20260901120027 65 259 0.0 0.0 0.00 0.00 0.00 90 1011.0
20260901114517 65 259 0.0 0.0 0.00 0.00 0.00 90 1010.6
20260901113014 65 259 0.0 0.0 0.00 0.00 0.00 90 1010.5
20260901111516 65 259 0.0 0.0 0.00 0.00 0.00 89 1010.4
20260901110013 64 259 0.0 0.0 0.00 0.00 0.00 89 1010.6
20260901104514 65 259 0.0 0.0 0.00 0.00 0.00 89 1010.8
20260901103010 65 259 0.0 0.0 0.00 0.00 0.00 89 1011.1
20260901101508 65 259 0.0 0.0 0.00 0.00 0.00 88 1010.6
20260901100005 65 259 0.0 0.0 0.00 0.00 0.00 89 1010.7
20260901094510 65 259 0.0 0.0 0.00 0.00 0.00 88 1010.6
20260901093002 65 259 0.0 0.0 0.00 0.00 0.00 89 1010.6
20260901091502 65 259 0.0 0.0 0.00 0.00 0.00 89 1011.0
20260901090101 65 259 0.0 0.0 0.00 0.00 0.00 88 1011.0
20260901084557 66 259 0.0 0.0 0.00 0.00 0.00 88 1011.0
20260901083056 66 259 0.0 0.0 0.00 0.00 0.00 88 1010.6
20260901081552 66 259 0.0 0.0 0.00 0.00 0.00 87 1010.7
20260901080051 67 259 0.0 0.0 0.00 0.00 0.00 87 1010.7
20260901074549 67 259 0.0 0.0 0.00 0.00 0.00 87 1010.6
20260901073049 67 259 0.0 0.0 0.00 0.00 0.00 86 1010.7
20260901071545 67 259 0.0 0.0 0.00 0.00 0.00 87 1010.9
20260901070046 68 259 0.0 0.0 0.00 0.00 0.00 87 1010.8
20260901064542 68 259 0.0 0.0 0.00 0.00 0.00 86 1010.6
20260901063052 68 259 0.0 0.0 0.00 0.00 0.00 86 1010.6
20260901061545 68 259 0.0 0.0 0.00 0.00 0.00 86 1010.7
20260901060037 69 259 0.0 0.0 0.00 0.00 0.00 85 1010.7
20260901054536 69 259 0.0 0.0 0.00 0.00 0.00 85 1010.7
20260901053034 69 259 0.0 0.0 0.00 0.00 0.00 85 1010.6
20260901051512 69 259 0.0 0.0 0.00 0.00 0.00 84 1010.5
20260901050011 70 259 0.0 0.0 0.00 0.00 0.00 83 1010.4
20260901044509 71 259 0.0 0.0 0.00 0.00 0.00 82 1010.3
20260901043057 72 259 0.0 0.0 0.00 0.00 0.00 81 1010.2
20260901041550 73 259 0.0 0.0 0.00 0.00 0.00 81 1010.3
20260901040050 73 259 0.0 0.0 0.00 0.00 0.00 82 1010.1
20260901034534 73 259 0.0 0.0 0.00 0.00 0.00 81 1010.0
20260901033029 73 259 0.0 0.0 0.00 0.00 0.00 81 1009.8
20260901031628 73 259 0.0 0.0 0.00 0.00 0.00 80 1009.6
20260901030043 74 259 0.0 0.0 0.00 0.00 0.00 80 1009.4
20260901024518 74 259 0.0 0.0 0.00 0.00 0.00 79 1009.1
20260901023008 74 259 0.0 0.0 0.00 0.00 0.00 78 1009.0
20260901021506 75 259 0.0 0.0 0.00 0.00 0.00 77 1009.0
20260901020005 76 259 0.0 0.0 0.00 0.00 0.00 74 1008.9
20260901014506 78 259 0.0 0.0 0.00 0.00 0.00 73 1008.8
20260901013005 79 259 0.0 0.0 0.00 0.00 0.00 72 1008.8
20260901011502 79 261 0.0 0.0 0.00 0.00 0.00 72 1008.9
20260901010002 80 197 0.0 0.0 0.00 0.00 0.00 71 1008.9
20260901004501 80 254 0.0 0.0 0.00 0.00 0.00 69 1008.9
20260901003005 81 258 0.0 0.0 0.00 0.00 0.00 69 1008.9
20260901001559 81 262 0.0 0.0 0.00 0.00 0.00 68 1009.0
20260901000112 82 258 0.0 0.0 0.00 0.00 0.00 66 1009.0
20260831234603 82 252 0.0 0.0 0.00 0.00 0.00 66 1009.1
20260831233057 82 267 0.0 0.0 0.00 0.00 0.00 65 1009.2
20260831231556 82 259 0.0 0.0 0.00 0.00 0.00 66 1009.2
20260831230054 82 271 0.0 0.0 0.00 0.00 0.00 66 1009.4
20260831224555 82 257 0.0 0.0 0.00 0.00 0.00 68 1009.5
20260831223058 81 196 0.0 0.0 0.00 0.00 0.00 68 1009.7
20260831221550 82 236 0.0 0.0 0.00 0.00 0.00 68 1010.0
20260831220050 81 258 0.0 0.0 0.00 0.00 0.00 69 1009.9
20260831214553 81 274 0.9 0.0 0.00 0.00 0.00 68 1009.7
20260831213056 82 269 0.0 0.0 0.00 0.00 0.00 66 1009.9
20260831211546 82 273 0.0 0.0 0.00 0.00 0.00 67 1010.0
20260831210044 82 264 0.0 0.0 0.00 0.00 0.00 68 1010.1
20260831204544 82 279 0.9 0.0 0.00 0.00 0.00 68 1010.2
20260831203042 81 265 0.0 0.0 0.00 0.00 0.00 69 1010.3
20260831201539 81 246 0.0 0.0 0.00 0.00 0.00 69 1010.2
20260831200039 81 267 0.0 0.0 0.00 0.00 0.00 68 1010.3
20260831194609 81 266 0.0 0.0 0.00 0.00 0.00 69 1010.5
20260831193037 81 264 0.0 0.0 0.00 0.00 0.00 70 1010.5
20260831191534 81 262 0.0 0.0 0.00 0.00 0.00 69 1010.5
20260831190032 81 264 0.0 0.0 0.00 0.00 0.00 69 1010.5
20260831184528 80 274 0.0 0.0 0.00 0.00 0.00 70 1010.5
20260831183027 81 274 0.0 0.0 0.00 0.00 0.00 70 1010.5
20260831181524 81 292 0.0 0.0 0.00 0.00 0.00 70 1010.5
20260831180019 81 252 0.0 0.0 0.00 0.00 0.00 68 1010.3
20260831174524 81 251 0.0 0.0 0.00 0.00 0.00 69 1010.1
20260831173012 81 251 0.0 0.0 0.00 0.00 0.00 69 1010.2
20260831171510 81 251 0.0 0.0 0.00 0.00 0.00 70 1010.1
20260831170039 81 251 0.0 0.0 0.00 0.00 0.00 70 1010.0
20260831164539 80 251 0.0 0.0 0.00 0.00 0.00 72 1010.0
20260831163032 79 251 0.0 0.0 0.00 0.00 0.00 72 1010.0
20260831161520 79 251 0.0 0.0 0.00 0.00 0.00 73 1010.0
20260831160020 79 251 0.0 0.0 0.00 0.00 0.00 74 1010.0
20260831154514 77 251 0.0 0.0 0.00 0.00 0.00 77 1010.1
20260831153010 76 251 0.0 0.0 0.00 0.00 0.00 78 1010.0
20260831151501 75 251 0.0 0.0 0.00 0.00 0.00 81 1010.0
20260831150057 74 251 0.0 0.0 0.00 0.00 0.00 82 1009.8
20260831144554 73 251 0.0 0.0 0.00 0.00 0.00 83 1009.7
20260831143108 72 251 0.0 0.0 0.00 0.00 0.00 84 1009.6
20260831141609 72 251 0.0 0.0 0.00 0.00 0.00 84 1009.5
20260831140047 72 251 0.0 0.0 0.00 0.00 0.00 84 1009.1
20260831134544 72 251 0.0 0.0 0.00 0.00 0.00 83 1008.9
20260831133038 73 251 0.0 0.0 0.00 0.00 0.00 83 1008.8
20260831131537 73 251 0.0 0.0 0.00 0.00 0.00 83 1008.8
20260831130043 73 251 0.0 0.0 0.00 0.00 0.00 83 1008.7